Погода в Камешково

Россия / Владимирская область     56°20′56″N   40°59′44″E
темп.,
°C
ветер,
м/с
пор.,
м/с
влажн.,
%
обл.,
%
осадки,
мм/ч
давл.,
гПа
погр.,
м
12 августа, пт
пт1200:00+14ю00721 0.0 102511
03:00+13з117661 0.0 102510
06:00+14з11725 0.0 102625
09:00+21зсз234957 0.0 1025549
12:00+25зсз333569 0.0 10241524
15:00+27зсз343272 0.0 10231725
18:00+25сз354385 0.0 1022405
21:00+18ссз236498 0.0 102334
13 августа, сб
сб1300:00+16сз1267100 0.0 102311
03:00+15зсз1173100 0.0 102311
06:00+16ссз1172100 0.0 102314
09:00+22зюз1155100 0.0 1023364
12:00+26сз1143100 0.0 10221194
15:00+27с1139100 0.0 10211774
18:00+26всв114718 0.0 1020324
21:00+19вюв1267100 0.0 102011
14 августа, вс
вс1400:00+18ююв227275 0.0 102111
03:00+16ю11780 0.0 102111
06:00+17ююв11761 0.0 102111
09:00+24юв11510 0.0 1020475
12:00+28вюв11406 0.0 10201834
15:00+29всв21359 0.0 10192308
18:00+27всв234482 0.0 1019595
21:00+23вюв245790 0.0 101990
15 августа, пн
пн1500:00+20вюв22653 0.0 102027
03:00+17вюв11723 0.0 102011
06:00+18вюв12724 0.0 102126
09:00+25вюв23475 0.0 1021500
12:00+29вюв33357 0.0 10212394
15:00+30в333111 0.0 10212586
18:00+27в464112 0.0 1021597
21:00+21вюв34644 0.0 102267
16 августа, вт
вт1600:00+19вюв36655 0.0 102383
03:00+17вюв24720 0.0 102460
06:00+17в36755 0.0 1024141
09:00+24вюв4551100 0.0 1025551
12:00+28вюв453811 0.0 10242033
15:00+29вюв553338 0.0 10232548
18:00+27в474190 0.0 1023940
21:00+21вюв4126020 0.0 1023290